Wind_Speed
15 15 14 14 13 11 12 15 16 16 16 16 16 17 18 17 16 14 12 8 6 6 6 5 7 8 9 10 10 10 11 11 10 10 10 11 11 10 10 11 10 9 8 8 8 8 8 8 8 8 8 8 8 9 8 8 8 8 7 7 7 8 7 7 8 8 8 8 8 10 10 10 10 11 11 11 12 13 14 15 15 15 16 17 17
16 14 14 13 12 11 11 14 16 17 16 17 17 17 18 17 15 14 11 8 6 7 8 7 8 9 9 9 10 11 11 11 10 10 10 10 10 9 10 10 9 8 7 7 7 7 7 7 8 8 7 7 7 8 8 8 7 7 7 7 7 7 7 7 7 8 8 8 9 10 10 10 10 10 11 11 12 13 13 14 14 14 15 16 17
16 14 13 12 12 11 11 13 16 17 17 17 17 17 17 16 15 13 9 7 7 7 9 8 8 9 10 10 11 11 11 11 11 11 10 10 9 9 9 10 9 8 8 7 7 6 6 7 7 7 8 8 7 8 8 6 6 7 7 7 7 8 8 8 8 9 10 10 10 11 11 11 11 11 11 11 11 12 12 12 13 13 14 15 15
16 14 14 14 13 12 12 14 16 16 16 17 17 16 16 16 15 12 9 8 7 7 9 9 9 10 10 10 11 12 12 12 11 11 10 10 9 9 10 10 10 9 7 7 6 6 6 6 6 6 7 7 7 7 7 6 6 7 7 8 8 8 8 9 11 12 13 14 14 14 14 14 14 13 13 13 13 12 12 12 12 12 12 13 13
16 15 15 16 15 14 14 15 14 14 15 15 16 16 16 15 14 12 9 8 8 8 10 10 9 10 10 11 12 13 13 12 12 11 10 10 10 11 11 10 10 8 6 7 7 6 6 7 6 6 7 7 7 7 7 8 8 8 9 9 9 10 10 11 13 14 15 15 14 14 14 14 15 15 15 15 15 15 13 12 11 11 12 12 12
17 17 17 17 16 15 14 14 13 13 13 13 14 15 15 14 14 12 10 9 8 10 11 11 10 10 11 12 14 14 14 13 12 11 11 10 10 10 10 9 8 8 9 9 7 6 7 7 7 8 8 8 8 8 8 9 10 11 11 11 12 12 12 12 12 12 12 11 10 10 11 12 13 13 13 14 14 15 14 12 11 11 11 11 11
19 19 19 18 16 16 15 14 12 12 13 12 13 14 14 14 13 12 12 11 10 12 13 12 11 10 11 13 14 14 13 12 12 12 11 10 10 9 9 8 8 10 11 10 8 8 8 8 8 8 8 8 8 8 8 8 8 9 10 10 10 10 10 9 8 8 7 7 7 7 7 8 9 10 10 12 13 13 12 11 10 9 10 10 10
20 20 20 18 17 16 15 13 12 13 14 13 14 14 15 15 13 12 13 14 13 14 13 12 11 11 12 13 13 14 13 12 12 12 12 11 10 9 9 8 9 12 12 10 9 8 7 7 8 8 8 8 6 6 6 6 6 6 7 7 6 7 6 5 5 5 5 5 4 4 4 4 6 7 9 10 11 12 10 9 9 9 9 9 10
21 21 21 19 17 15 15 14 13 14 16 16 15 14 16 16 15 14 13 14 16 16 14 13 12 12 12 13 13 12 13 13 12 12 13 12 11 9 9 9 11 13 12 11 10 7 4 4 5 5 7 7 6 5 5 4 4 5 5 5 5 4 4 3 2 2 2 3 2 2 1 1 2 3 6 9 10 10 9 8 9 9 8 9 12
23 22 21 20 17 15 15 15 15 16 18 17 15 15 16 16 16 16 14 15 17 17 16 15 13 12 12 11 11 11 11 12 12 12 13 13 11 10 9 9 12 13 12 10 9 6 3 3 3 3 4 5 6 7 6 5 5 4 4 3 3 2 2 1 0 1 0 0 1 2 2 1 1 2 4 7 9 9 7 7 9 9 9 11 14
24 24 23 21 18 17 17 17 17 18 19 18 16 16 17 17 16 16 16 15 16 18 17 16 13 11 10 8 8 8 9 11 12 12 13 12 11 11 10 9 11 13 11 10 8 5 3 2 1 1 2 3 5 6 7 8 7 6 5 4 2 2 1 1 1 1 0 0 1 1 1 1 1 3 5 5 7 6 5 7 9 10 11 13 15
25 25 23 22 20 19 19 19 18 18 19 19 19 18 18 18 17 17 17 16 16 17 17 17 15 13 11 9 7 6 7 9 11 12 13 12 11 12 11 9 10 12 11 9 8 5 3 2 1 2 3 3 3 4 5 7 8 7 6 5 4 3 2 0 1 2 3 3 2 1 1 1 1 2 6 7 6 5 5 8 9 10 12 13 13
26 25 24 23 22 21 20 20 20 20 19 19 19 18 17 18 18 18 17 17 17 17 17 19 17 13 11 10 8 6 4 5 7 9 12 12 11 11 11 9 9 11 11 9 7 5 3 2 2 3 4 4 3 3 3 4 5 6 6 6 5 3 1 3 4 5 4 3 2 2 3 3 3 3 5 8 7 5 6 7 8 10 11 11 11
25 25 24 24 24 23 22 22 22 21 20 19 18 17 17 19 20 19 17 18 19 18 19 17 13 11 10 9 7 5 3 2 3 4 6 8 8 9 8 9 9 10 10 9 7 5 4 4 3 2 3 4 4 3 3 3 3 4 5 5 5 3 4 6 6 6 4 3 2 2 3 3 3 3 4 7 7 6 6 6 8 9 9 10 10
24 25 25 24 24 25 24 23 23 22 20 19 19 18 19 20 21 20 19 18 17 19 20 14 13 14 11 6 3 2 2 2 3 3 3 3 5 7 7 9 10 10 10 10 7 6 4 4 2 1 2 3 3 3 3 2 3 4 4 5 6 6 7 7 6 5 3 2 2 2 2 2 2 3 5 7 8 7 6 5 7 7 7 8 8
25 25 25 25 24 24 25 24 23 21 20 20 20 20 20 21 21 21 21 20 16 19 19 13 16 16 8 3 2 1 1 2 4 4 3 4 4 6 8 9 10 10 10 9 7 6 5 5 2 1 2 3 3 4 4 3 4 6 7 8 8 8 7 6 5 4 2 2 2 2 2 2 4 5 6 7 8 7 6 5 6 6 6 5 4
26 26 26 26 24 24 25 25 23 21 21 21 21 21 21 21 22 22 23 23 20 21 18 14 16 16 9 5 3 1 2 2 5 4 3 6 7 7 8 9 10 10 10 8 7 6 5 6 4 2 2 2 3 4 5 6 7 8 9 9 9 8 6 4 4 4 3 4 4 3 3 4 7 8 8 9 8 8 6 5 4 4 3 2 2
26 28 27 26 25 25 26 26 25 23 22 22 22 22 22 22 22 22 23 24 22 22 20 15 17 16 10 7 3 2 5 7 4 1 3 5 6 7 7 8 9 9 9 8 8 7 6 7 6 4 3 3 5 5 6 7 8 8 8 7 6 5 5 5 5 5 4 5 5 4 5 8 10 10 10 10 9 8 7 5 3 1 1 2 2
26 27 27 26 25 25 26 26 27 24 22 23 23 23 23 22 22 22 22 23 23 24 23 19 18 17 12 7 3 2 8 11 6 3 3 4 6 8 7 7 8 9 9 10 9 9 8 8 7 5 3 5 6 6 7 7 7 7 6 5 4 4 5 6 6 5 5 5 5 5 6 8 10 11 11 11 10 8 6 4 2 2 2 1 2
27 26 26 27 25 25 26 27 27 25 23 23 23 23 23 23 22 21 21 22 22 22 24 22 19 19 15 10 6 5 10 12 11 8 4 2 4 6 7 8 9 9 10 10 10 10 9 10 9 6 5 7 7 7 7 7 6 5 5 4 4 4 5 6 7 7 6 6 5 5 5 6 8 9 10 10 10 8 6 4 3 2 1 1 2
27 26 26 26 24 24 26 27 27 25 23 22 22 23 24 23 23 22 21 22 21 19 21 22 21 20 17 12 7 8 10 8 11 10 5 3 3 3 6 8 8 10 11 11 11 10 9 10 9 7 7 8 8 8 7 7 6 5 5 4 4 5 6 7 7 7 7 6 5 4 4 5 5 6 8 8 7 6 4 3 2 1 2 2 3
25 23 23 23 22 22 24 27 26 24 23 22 21 23 24 23 22 22 21 21 21 20 18 19 20 20 19 15 11 12 10 6 10 11 6 5 3 3 8 8 6 10 11 12 12 10 9 10 10 9 8 8 8 7 7 7 6 6 6 5 5 5 6 7 6 6 5 5 4 4 4 5 5 5 6 6 5 5 4 3 2 2 2 2 3
25 21 20 21 22 22 24 26 25 23 23 21 21 22 23 22 21 21 22 21 21 21 19 19 20 21 20 17 15 15 14 11 15 16 11 7 5 5 8 9 7 10 12 12 11 10 9 10 11 10 9 9 8 7 8 8 7 7 7 6 6 6 6 6 6 5 5 5 5 5 5 5 5 5 5 5 5 5 4 4 3 2 2 2 3
25 22 21 22 23 23 24 25 25 23 22 22 21 21 21 22 21 21 21 21 21 21 21 20 21 23 22 19 17 16 17 16 17 19 16 13 11 7 8 10 7 7 11 11 10 9 10 11 11 10 9 9 8 8 8 9 8 8 8 7 7 7 7 6 6 5 5 5 5 6 5 5 5 5 6 5 5 6 6 5 4 3 3 4 4
25 24 24 24 25 25 24 25 24 22 22 22 21 20 21 21 21 21 20 20 21 21 21 21 22 23 22 20 17 16 17 15 14 17 16 15 14 10 9 10 6 5 9 11 10 9 10 12 12 11 11 10 9 9 9 9 9 9 8 8 8 7 7 7 6 6 6 5 6 6 6 5 5 6 6 6 6 6 6 5 4 4 5 5 5
27 26 25 25 25 24 24 24 23 22 22 22 21 21 21 20 19 21 21 21 21 20 20 19 20 21 21 21 19 17 18 16 13 14 16 16 15 14 12 7 5 7 7 9 10 10 11 14 15 14 13 12 10 9 9 10 9 9 10 9 9 8 7 7 7 7 6 6 6 7 7 7 7 7 6 6 5 5 5 5 5 4 4 4 5
28 26 24 24 23 21 23 24 23 22 21 21 22 21 20 20 19 20 21 21 21 20 18 18 18 19 19 19 19 18 18 17 14 14 17 18 16 18 18 10 3 4 5 6 9 12 14 15 17 17 15 14 12 10 9 10 10 10 11 10 9 8 8 8 7 7 7 6 6 6 7 7 7 6 5 5 4 4 4 5 5 4 3 3 3
27 26 24 23 23 22 23 25 23 22 21 21 22 22 20 20 19 19 20 21 21 19 18 17 17 18 17 17 17 18 17 16 15 14 16 18 16 18 22 18 9 4 3 4 6 10 14 16 17 19 18 15 13 12 11 11 11 11 11 11 9 9 9 9 8 8 8 7 6 6 6 6 6 5 5 5 4 4 4 4 4 3 3 2 2
27 26 25 24 25 24 24 24 22 22 22 21 21 21 20 20 19 19 20 21 20 19 18 17 17 17 17 16 16 16 16 16 16 15 16 18 18 17 22 25 19 9 4 3 6 9 13 16 18 19 20 18 15 14 13 12 12 13 12 11 10 10 10 9 9 9 8 7 7 6 6 6 6 6 5 5 4 4 4 3 3 2 2 1 1
26 27 26 25 25 25 23 22 22 22 21 21 21 21 21 20 19 19 19 20 19 18 17 16 15 15 16 16 15 14 16 16 17 16 16 19 19 19 22 25 23 17 11 6 6 11 14 17 19 19 19 20 18 16 15 13 13 14 13 12 11 11 11 10 9 9 8 7 7 7 7 7 6 6 5 5 4 3 3 2 2 1 1 0 1
19 23 26 27 26 25 24 23 22 22 21 21 21 21 21 21 19 19 19 19 19 18 16 15 15 14 14 14 14 13 15 16 15 15 16 18 19 20 22 24 23 21 18 11 5 10 16 18 20 20 17 18 20 19 16 14 14 14 14 12 11 11 12 11 10 10 9 8 8 7 7 7 7 6 5 4 4 3 2 2 1 0 0 1 2
19 20 24 28 27 25 25 24 24 23 21 21 21 21 21 20 19 19 20 19 18 18 17 15 15 14 14 13 13 13 14 15 15 14 15 16 17 19 22 24 23 19 17 14 7 8 15 18 18 20 18 16 19 20 17 15 15 16 15 13 12 13 13 13 12 11 11 10 9 8 8 8 7 6 6 5 4 3 2 2 1 1 2 3 3
23 23 24 27 27 26 25 25 24 23 22 22 22 21 21 20 19 19 20 19 18 18 17 16 16 15 14 13 13 13 14 15 15 16 15 15 15 17 21 23 24 20 17 15 10 7 12 15 16 18 19 17 18 19 18 16 17 17 16 15 14 14 15 15 14 13 13 12 11 11 10 9 9 8 7 6 6 5 5 4 4 4 5 5 6
25 25 26 27 26 26 25 24 24 23 22 22 21 21 21 20 20 20 20 19 19 18 17 17 17 16 15 14 14 14 14 14 15 16 16 16 14 17 21 23 24 23 19 17 14 10 10 14 15 17 18 17 18 19 18 17 18 18 18 16 16 16 16 16 16 15 15 14 13 13 13 12 11 11 10 9 9 8 8 8 8 8 8 8 9
27 27 27 28 27 26 25 24 23 23 22 21 21 20 20 20 21 21 20 20 20 19 18 17 18 17 15 16 16 15 15 15 15 15 16 16 15 16 19 22 22 23 22 19 17 15 14 14 16 18 19 19 19 20 19 18 18 19 19 17 17 17 17 18 18 17 16 16 16 16 15 15 14 14 13 13 12 12 12 12 12 12 12 12 12
27 27 26 27 27 26 25 25 24 23 22 21 21 20 19 19 20 20 20 20 20 19 18 17 17 16 15 16 17 17 17 17 16 16 15 15 17 17 18 20 20 20 20 20 20 19 18 17 18 20 20 20 20 20 19 18 19 20 19 18 18 18 18 18 18 18 18 18 19 19 18 18 17 17 17 17 16 16 16 16 15 15 16 16 16
27 26 25 26 27 26 26 26 25 23 21 21 22 21 19 18 18 19 19 20 20 19 18 17 16 16 16 16 16 16 17 18 17 16 16 16 17 18 19 21 20 18 18 19 21 21 21 21 20 20 20 19 20 21 20 19 20 21 21 19 19 19 19 19 19 19 19 20 21 22 21 21 20 20 20 20 20 20 20 20 20 20 19 19 19
27 26 24 25 26 26 26 27 26 23 20 21 21 21 20 18 17 18 19 19 19 18 17 16 15 15 15 14 14 15 16 17 17 16 16 16 17 17 18 20 21 19 18 19 19 21 23 23 22 20 20 21 21 22 21 19 20 22 22 21 21 21 21 21 21 21 21 22 24 24 24 24 23 23 23 24 24 24 24 24 24 24 24 24 23
28 27 26 26 27 28 27 27 25 23 21 21 21 20 19 18 17 17 17 17 17 17 16 15 15 15 14 13 13 14 15 16 16 16 15 16 17 18 17 18 19 19 19 18 16 18 21 22 20 20 20 21 21 21 20 19 19 20 21 21 22 23 23 23 23 22 23 24 25 25 25 25 26 26 27 27 27 27 27 28 28 28 28 28 27
30 29 27 27 28 28 27 26 24 22 22 22 21 20 19 18 18 18 17 17 16 16 15 14 15 14 13 12 11 12 13 14 15 15 15 15 17 18 17 16 18 20 19 16 12 14 19 20 18 19 19 19 20 19 17 16 17 20 22 23 24 24 23 24 23 23 23 25 26 26 27 27 28 28 29 30 30 30 30 31 31 32 32 32 32
29 29 27 27 28 27 26 26 24 23 22 22 21 21 19 17 17 17 16 16 16 16 16 15 15 15 14 12 11 11 11 12 13 14 14 13 14 16 16 15 16 18 19 18 13 12 16 19 17 16 16 17 20 19 18 19 21 22 22 23 26 26 24 24 25 25 25 27 27 28 28 28 29 30 30 32 32 32 33 33 33 34 34 34 34
28 29 29 27 27 27 26 25 24 23 22 21 20 20 18 17 16 15 14 14 16 16 16 16 16 16 14 12 10 10 9 10 11 11 11 11 11 11 11 12 14 14 18 22 19 15 16 19 19 17 16 18 21 23 23 23 23 22 19 20 24 25 22 22 25 27 27 28 29 31 30 29 30 32 32 33 33 33 34 35 35 35 35 36 36
29 31 31 29 28 27 27 26 25 24 23 21 20 19 17 15 15 14 14 15 16 16 16 17 16 15 13 11 9 8 7 7 8 9 10 10 10 10 10 12 14 15 17 21 22 20 20 20 19 19 19 20 21 23 24 21 19 19 19 19 20 21 18 17 20 24 24 21 23 27 28 28 30 31 32 33 34 35 36 36 36 37 38 39 39
30 31 32 31 30 29 29 28 25 23 22 20 20 19 17 16 15 15 16 16 17 18 18 17 17 15 12 10 8 8 8 8 9 9 10 11 11 10 9 11 13 15 16 19 21 22 21 19 17 18 19 17 14 15 18 18 17 17 17 18 20 21 21 19 21 24 23 19 17 20 25 28 27 29 31 32 32 34 36 36 37 39 40 40 39
31 32 32 31 31 31 30 29 25 22 21 21 20 20 19 18 17 16 17 17 18 19 18 17 16 14 12 11 11 11 11 12 13 13 13 14 14 14 14 15 14 12 10 9 10 12 14 16 16 14 12 10 7 6 8 10 11 12 13 15 17 19 20 21 23 25 24 21 18 18 22 26 26 27 30 29 28 30 30 31 32 33 34 35 35
32 33 33 32 32 31 30 29 26 23 22 21 21 21 20 19 18 17 17 18 19 18 17 16 15 14 13 12 12 12 12 12 12 13 14 15 16 16 16 17 18 16 14 12 10 9 8 9 11 10 8 7 6 6 4 4 4 5 6 7 8 9 12 14 16 18 17 17 17 16 18 21 22 24 27 25 23 25 25 25 25 24 25 25 26
32 33 35 33 31 30 28 27 27 25 23 21 21 21 21 20 19 18 18 19 19 18 16 16 15 14 13 12 12 12 12 11 11 11 12 13 13 13 13 14 14 13 12 10 9 8 9 9 9 9 9 7 6 5 3 2 1 1 2 2 2 3 6 8 10 12 12 13 14 13 15 17 18 20 23 22 20 21 20 19 20 20 21 23 23
30 32 33 32 30 28 26 25 26 25 22 20 20 20 21 21 20 20 19 20 20 19 18 18 17 16 15 14 14 14 13 13 12 11 11 11 13 13 13 14 14 13 13 12 10 9 8 8 8 7 5 4 3 2 1 0 1 2 3 4 4 5 7 9 10 11 11 11 11 11 14 17 17 18 20 19 18 19 18 18 21 24 24 24 23
28 31 32 29 27 26 25 23 24 24 22 20 19 18 19 21 20 20 20 21 21 22 21 20 19 18 17 16 16 16 17 16 15 14 13 13 14 14 15 15 14 14 13 12 11 10 9 8 7 7 6 5 4 3 2 1 1 2 3 4 5 6 7 8 8 9 11 12 13 13 15 15 14 15 18 19 19 20 21 21 22 24 23 22 22
26 30 31 29 27 25 23 22 21 22 22 20 20 20 19 20 21 20 21 23 24 24 23 22 20 19 18 17 16 16 17 17 15 14 12 12 13 13 14 14 14 13 12 10 9 9 9 8 9 9 9 8 7 6 6 5 4 4 4 5 6 6 6 5 4 8 10 10 9 9 10 11 12 15 17 19 20 19 18 17 17 18 18 18 20
27 29 30 30 28 26 24 22 20 21 21 21 21 22 21 21 21 22 23 25 26 25 23 22 20 18 17 16 15 14 14 14 12 11 9 9 9 10 10 10 11 11 11 9 9 9 10 10 11 10 10 9 8 7 7 7 7 8 9 9 9 9 9 8 7 7 6 5 6 8 10 12 14 15 15 14 12 10 10 11 14 16 17 18 19
Wind_Direction
190 185 185 186 184 179 175 179 181 181 177 172 165 159 158 160 165 168 164 158 154 165 174 168 160 157 154 149 143 140 139 139 141 141 139 138 138 138 133 131 134 135 136 135 132 131 128 126 121 120 123 123 122 118 113 110 109 108 106 103 101 99 95 97 100 98 93 87 89 89 85 80 78 79 78 78 78 75 72 71 70 66 63 63 63
194 189 189 188 188 188 183 184 184 184 183 180 173 165 162 163 167 170 168 168 174 184 194 191 172 166 165 159 150 146 147 146 147 145 141 141 139 137 138 138 134 127 129 131 131 135 134 130 127 129 127 120 118 112 106 108 116 119 115 112 113 110 102 98 98 96 93 89 87 89 90 86 81 79 79 79 81 80 76 73 73 71 68 67 65
198 193 190 188 189 190 187 185 184 183 182 182 180 173 169 171 176 178 180 179 179 189 200 200 182 173 174 169 160 157 156 153 150 147 144 143 141 141 144 141 135 132 138 145 146 144 141 138 134 132 128 120 116 112 114 118 119 119 116 114 111 109 104 99 94 90 88 86 83 83 82 80 79 77 76 76 77 78 80 79 76 75 74 73 70
201 194 186 183 181 177 176 176 177 177 177 179 182 179 176 178 183 186 192 191 188 195 202 203 190 178 180 179 173 170 166 159 155 151 146 143 140 141 145 144 145 149 156 159 154 145 141 136 124 119 121 122 125 124 126 122 113 112 113 112 108 103 101 97 93 90 89 86 82 80 78 76 76 75 74 73 72 72 74 80 82 80 78 76 76
199 191 181 178 176 171 171 171 170 171 171 174 178 179 178 179 185 193 197 192 196 203 203 202 195 184 182 183 181 178 172 164 161 156 149 144 143 144 145 146 151 155 145 134 133 136 138 134 124 121 121 122 125 122 117 112 108 109 108 106 102 99 99 99 98 95 90 86 82 79 78 78 76 75 74 72 71 68 64 69 77 80 77 75 77
197 190 182 181 181 178 176 174 174 174 172 176 182 184 182 182 188 195 194 190 201 209 204 200 194 185 181 182 183 181 174 169 166 160 155 152 150 149 148 152 159 153 136 128 129 132 134 133 132 128 124 123 122 119 114 109 105 105 104 102 99 97 98 98 97 94 88 85 82 80 78 79 80 76 74 73 71 67 62 60 64 74 77 75 74
198 193 190 188 186 186 183 181 183 183 183 185 188 190 187 186 189 192 191 192 202 203 200 196 187 181 178 180 183 180 173 172 173 167 162 161 158 155 153 156 162 153 142 138 140 136 132 135 134 127 123 125 125 123 119 114 110 105 101 101 100 98 97 96 95 93 89 84 81 81 80 80 82 81 79 75 72 68 65 62 62 70 77 81 82
200 198 198 196 191 190 189 189 194 194 192 189 188 190 188 187 189 193 191 188 193 193 190 186 175 167 170 176 179 179 179 181 182 174 168 168 166 162 157 159 162 154 147 146 144 136 131 137 138 134 133 133 134 137 134 131 129 116 110 113 113 104 99 97 97 96 88 81 72 67 77 81 79 83 85 81 74 70 70 68 64 68 75 80 84
202 203 205 203 198 199 198 198 203 199 194 190 190 188 187 188 187 192 193 185 184 184 179 173 164 157 161 168 173 181 188 189 188 182 176 173 170 165 160 161 163 158 154 153 149 141 141 149 150 153 153 149 152 159 160 156 151 138 128 128 129 117 105 99 95 92 82 79 57 27 22 90 83 93 96 89 81 75 71 65 61 65 72 74 79
205 207 209 208 205 207 204 201 199 195 191 191 191 186 185 188 184 184 192 186 182 182 176 168 159 152 151 158 167 178 190 193 192 189 183 177 169 164 159 161 167 165 162 159 156 155 165 169 156 160 165 167 175 182 188 188 180 170 161 151 142 131 129 134 35 343 323 345 351 337 295 258 201 174 131 100 87 81 71 60 61 66 73 81 88
206 208 210 209 208 207 202 198 196 194 194 194 192 187 183 187 186 183 186 185 184 183 174 163 152 143 136 139 154 171 185 193 197 195 193 187 174 166 162 159 167 173 171 165 164 171 183 183 165 169 172 178 192 200 204 205 203 194 188 192 193 194 217 257 277 259 178 67 1 323 279 217 196 184 171 135 101 95 84 64 66 73 83 93 95
207 208 209 210 209 207 202 199 199 200 200 199 195 191 186 185 185 182 182 179 176 177 170 155 136 122 117 118 130 155 175 187 194 197 199 199 190 181 172 162 166 178 181 174 172 182 195 211 245 236 208 198 199 206 210 211 213 211 207 211 217 234 256 243 132 122 111 97 85 80 87 101 130 157 175 165 138 120 101 77 73 82 86 89 86
207 207 208 209 208 207 204 202 202 203 205 203 197 194 191 186 182 179 182 177 166 168 167 150 129 117 113 106 103 116 140 170 183 192 202 207 208 198 181 169 168 179 187 185 184 194 208 233 253 242 226 224 218 209 205 204 208 211 213 215 222 241 179 126 116 109 116 124 123 111 95 97 106 118 163 169 161 138 108 86 77 82 82 80 79
207 207 207 208 208 207 205 204 202 201 204 202 197 196 193 188 181 176 181 180 170 168 168 153 131 126 124 108 91 86 92 128 159 188 209 216 222 213 194 184 177 179 188 191 197 212 222 233 247 244 231 228 224 216 203 187 184 194 201 202 201 180 136 126 117 116 137 151 134 114 100 102 108 110 133 155 163 149 118 92 80 84 85 83 85
207 207 207 208 210 208 206 205 200 197 200 200 197 197 195 190 187 182 178 176 173 171 170 162 142 131 119 111 101 88 102 123 156 179 201 222 230 216 203 198 188 185 191 195 207 225 228 226 228 222 219 218 209 197 185 166 153 168 169 159 156 143 131 125 124 132 155 178 170 143 108 95 95 104 122 141 155 155 140 112 95 96 98 95 93
206 206 209 211 212 210 208 207 202 197 200 201 198 198 197 193 192 189 180 172 170 174 174 171 160 147 125 106 109 133 197 164 142 145 172 200 209 208 209 205 197 195 196 199 210 222 225 218 214 216 214 206 191 174 165 153 143 145 140 136 138 134 130 133 135 134 131 144 156 150 130 86 82 99 120 135 145 153 150 128 112 110 110 103 93
207 208 212 213 213 212 209 208 204 201 201 203 200 198 198 196 195 194 187 180 174 176 178 179 179 173 157 138 125 163 219 157 136 130 173 193 191 204 214 204 196 200 201 203 211 219 222 216 214 231 225 198 172 162 158 151 143 140 137 133 136 136 143 150 139 129 123 125 123 125 118 88 88 102 120 130 135 142 142 132 129 125 109 85 63
210 211 213 213 213 212 210 209 206 202 202 203 201 199 199 200 201 199 195 190 181 178 182 187 192 189 173 155 157 194 174 153 142 137 170 182 191 205 211 193 187 194 197 202 210 214 218 216 221 237 219 168 155 158 158 155 151 149 145 143 148 155 166 161 145 137 128 119 117 121 108 96 99 107 114 121 126 132 135 136 145 125 14 10 36
210 211 212 211 211 210 210 208 206 202 201 202 202 201 202 203 205 206 203 196 186 181 186 190 194 197 195 192 218 225 175 166 168 164 155 177 193 194 195 190 187 190 194 201 207 208 211 211 217 228 196 153 152 163 162 161 161 160 158 161 169 176 171 158 147 138 124 117 120 125 117 108 113 120 121 126 133 142 152 164 196 268 311 12 49
212 212 210 208 208 209 208 205 204 202 200 203 203 203 204 205 207 210 209 202 195 191 191 192 196 200 204 219 247 218 183 183 181 163 135 149 172 179 190 194 196 196 196 201 203 205 209 208 208 208 180 156 159 167 169 172 174 173 176 180 183 186 177 161 154 147 137 132 131 133 133 126 125 133 141 148 153 161 175 195 218 238 225 98 86
214 214 210 208 208 207 205 203 201 200 200 203 205 205 205 206 208 210 209 207 206 205 202 200 203 204 202 211 216 181 175 185 181 164 136 146 154 158 179 183 194 199 196 197 201 205 205 203 202 195 178 166 168 174 180 188 192 191 189 194 198 195 183 169 163 159 152 148 147 146 148 144 137 139 148 153 151 152 163 183 196 175 132 117 108
213 214 213 214 214 210 204 201 201 201 202 204 205 207 207 207 209 209 209 211 211 213 215 213 211 207 204 204 189 169 162 164 177 170 146 147 156 160 172 174 182 192 194 196 201 204 201 201 201 195 184 179 181 187 196 201 202 202 198 198 202 193 181 173 170 166 162 160 160 161 158 152 148 139 139 142 139 139 146 150 147 130 119 113 101
212 211 213 218 221 216 207 203 202 203 206 207 206 208 208 207 208 208 208 212 214 216 219 223 219 211 209 212 203 189 184 184 185 180 166 155 152 150 168 175 178 188 194 199 204 204 202 204 204 201 195 193 198 201 204 205 203 205 204 199 197 193 187 183 183 181 176 177 172 165 161 155 154 150 145 148 144 140 135 128 126 120 106 96 91
210 208 209 210 214 216 210 204 204 206 209 210 208 208 210 209 209 209 209 212 216 218 219 222 221 213 210 215 218 212 206 203 196 190 184 174 163 148 158 168 176 191 192 196 205 207 208 211 209 208 207 205 209 209 206 207 207 210 208 200 195 195 196 195 195 196 189 177 161 148 148 150 151 152 149 146 140 132 127 125 130 131 116 103 96
208 207 206 203 205 210 211 207 204 207 209 209 208 208 209 210 210 211 212 213 215 218 220 223 223 219 215 216 221 222 217 215 209 200 194 178 162 149 154 168 171 174 186 192 197 205 213 217 216 214 215 213 212 213 213 214 216 215 208 198 192 192 197 203 204 202 192 175 157 149 153 155 150 149 147 141 138 134 128 121 120 125 123 117 111
212 209 206 203 202 203 209 210 206 205 208 208 208 207 206 208 210 212 214 217 218 218 221 225 226 224 221 220 221 223 221 220 219 210 200 188 173 158 151 161 166 155 168 187 194 204 212 218 221 221 221 219 216 218 220 222 223 216 206 196 192 192 200 206 204 200 194 185 176 173 175 175 173 169 163 159 159 150 128 116 112 114 121 121 119
218 213 208 204 202 200 206 210 206 203 206 208 207 204 205 208 210 214 216 218 219 218 219 223 225 224 224 224 225 224 222 222 226 223 214 208 198 177 161 149 142 153 155 175 198 213 216 216 221 223 223 220 218 223 226 227 225 214 205 200 197 198 202 201 199 196 193 191 188 185 186 187 187 185 179 179 181 163 133 123 123 122 126 128 122
218 213 207 203 203 202 206 209 207 207 207 206 205 204 207 210 211 215 217 217 216 215 217 222 222 223 224 227 228 226 226 227 228 228 223 220 216 196 177 165 157 157 162 174 199 217 218 217 219 222 223 221 221 225 228 228 223 213 207 206 206 204 201 197 197 196 192 189 186 187 192 193 193 192 185 181 177 163 142 128 127 130 135 138 131
216 209 204 203 203 202 206 209 208 207 205 203 203 204 207 209 210 213 214 213 211 211 216 221 222 224 225 225 228 230 230 230 227 229 228 224 220 209 194 183 173 161 161 193 204 206 210 215 218 220 220 220 223 225 226 227 220 213 211 212 213 210 203 200 201 201 195 190 189 191 194 196 195 190 180 173 170 164 151 133 128 135 140 148 147
219 210 204 201 200 200 202 203 202 200 201 202 203 205 207 207 208 211 211 208 207 209 214 218 220 222 223 223 227 231 231 229 229 232 231 226 221 214 205 196 186 178 173 174 206 207 203 209 216 221 219 217 219 222 224 224 218 214 214 217 218 213 209 207 206 206 203 199 198 199 200 199 194 185 174 169 168 164 155 142 132 131 148 219 281
231 216 207 200 197 199 198 198 199 198 200 202 201 203 203 204 207 209 208 206 207 210 213 217 220 218 218 221 224 227 227 226 230 234 228 223 222 217 209 200 195 192 184 168 181 210 207 211 216 219 222 219 217 219 221 220 215 213 215 220 222 217 214 215 213 211 210 210 210 208 206 201 193 185 176 171 172 172 166 153 137 133 271 280 284
238 227 215 204 197 197 197 198 200 200 199 198 196 198 200 203 208 208 206 206 208 211 211 214 218 218 218 219 220 222 222 223 228 228 221 219 221 220 215 205 199 201 194 181 179 202 208 217 222 220 224 223 218 218 219 217 213 212 215 220 223 221 220 221 220 218 215 216 218 217 214 208 200 195 191 188 188 189 198 213 234 260 263 267 270
229 227 221 210 200 196 196 198 200 199 197 195 194 197 200 203 207 207 205 204 207 210 210 213 217 218 220 219 218 220 221 223 225 223 221 221 221 220 218 210 203 206 204 197 198 198 202 214 222 223 225 225 221 219 219 218 214 212 214 217 221 225 225 226 226 224 221 220 220 221 220 217 213 211 209 210 213 218 229 241 250 256 260 264 265
217 217 219 216 206 197 195 197 199 198 196 195 196 199 202 205 206 206 206 205 206 208 210 215 217 218 221 221 218 219 219 221 221 222 223 222 220 220 218 214 209 210 211 208 208 207 204 209 217 222 226 226 223 221 221 221 218 215 216 217 221 225 227 229 230 229 227 226 225 225 225 224 224 225 225 226 230 236 243 249 254 258 261 264 266
209 209 215 220 211 198 196 197 198 198 197 197 199 199 201 204 205 205 206 205 205 205 207 213 215 216 219 219 219 221 222 222 219 221 225 222 220 220 215 214 214 214 216 217 217 218 217 216 218 222 225 225 222 221 224 225 222 220 221 223 225 227 228 230 232 232 232 231 230 230 230 230 231 233 236 238 241 244 248 252 255 258 260 261 263
206 204 211 220 213 200 197 197 198 199 197 197 198 197 200 204 204 203 203 203 203 204 207 211 212 213 215 217 220 222 223 224 221 221 224 222 219 215 210 210 212 216 220 222 227 230 227 222 223 225 226 225 221 220 223 225 222 222 226 228 230 232 234 234 235 234 234 235 236 236 236 237 238 240 243 246 248 250 253 256 258 259 261 261 261
204 201 206 217 213 202 198 197 196 196 196 198 198 199 202 205 206 206 205 205 207 208 212 213 212 214 216 218 219 219 221 225 225 223 224 223 220 217 213 211 212 219 225 225 231 237 232 227 224 222 223 223 218 217 222 224 221 222 227 230 233 236 237 238 238 238 236 237 239 240 240 241 243 246 249 251 253 256 258 259 261 262 263 263 263
201 197 201 212 210 200 196 195 195 196 196 197 197 199 201 202 205 207 207 208 210 212 215 216 215 215 216 217 217 216 220 224 225 226 227 224 220 217 218 218 217 221 225 227 234 236 232 229 224 218 218 217 213 213 219 223 224 224 227 231 235 237 239 240 241 241 239 239 240 242 243 245 248 251 254 256 257 259 261 262 264 265 265 266 266
199 194 196 206 206 197 194 195 195 195 194 193 194 199 202 203 205 205 204 206 209 209 212 213 212 212 214 218 219 219 223 226 226 226 227 224 219 216 217 218 215 215 217 223 231 231 226 224 220 216 215 213 209 211 217 223 228 230 231 234 237 238 238 241 244 243 242 242 243 244 246 248 250 253 256 258 259 260 262 263 265 266 266 267 267
199 194 194 203 202 196 195 194 192 192 192 192 195 201 205 206 206 205 206 208 208 208 211 212 210 211 217 223 225 227 229 229 229 230 229 225 219 215 213 209 207 209 211 212 218 223 223 221 217 215 212 208 205 207 213 219 224 229 231 232 236 240 240 241 245 246 245 246 247 248 249 250 252 253 254 256 257 257 259 261 262 264 266 266 267
193 189 191 200 198 192 192 191 190 192 191 191 196 201 204 202 202 204 208 208 207 208 211 211 211 214 217 221 226 231 233 231 231 233 230 227 225 222 214 203 199 206 212 214 214 217 220 219 218 213 207 205 202 201 208 215 220 226 229 229 236 243 246 248 251 251 250 251 252 253 254 254 254 256 257 258 259 259 259 260 262 264 265 266 267
187 183 188 196 194 191 191 190 191 192 191 192 196 199 199 197 198 201 200 198 199 202 204 205 206 209 211 216 225 230 233 231 228 226 224 223 224 223 216 206 200 206 216 221 224 226 223 219 216 210 203 206 207 207 213 220 224 228 231 232 239 246 252 255 259 259 257 256 257 259 262 262 260 261 261 261 262 264 264 265 265 267 269 270 271
187 185 188 192 193 192 191 189 189 190 189 190 192 193 191 190 194 196 192 192 194 194 193 192 193 196 201 209 215 214 211 210 209 211 212 208 200 197 203 208 209 211 215 218 222 227 227 220 214 210 209 212 212 213 218 225 229 232 236 239 244 250 255 259 265 269 269 267 264 264 270 273 269 267 267 267 268 268 269 270 272 273 274 274 274
187 186 187 190 190 190 187 184 183 184 184 185 185 184 180 176 180 183 181 183 187 187 187 186 186 189 193 193 188 183 177 169 166 168 169 168 166 168 173 184 196 206 215 221 224 226 225 218 209 209 216 219 218 219 225 231 240 247 250 252 251 251 252 251 257 267 275 280 278 273 278 284 281 276 277 277 277 276 276 277 278 278 278 278 278
183 180 181 183 182 181 179 176 175 174 176 177 176 176 173 171 172 171 169 174 180 183 184 184 182 181 180 176 170 168 167 162 156 149 143 139 135 131 128 127 131 140 158 180 200 211 215 211 202 196 203 209 198 196 211 223 237 248 253 257 257 254 252 252 258 269 278 284 283 276 277 284 285 281 280 284 286 286 285 286 287 287 287 287 286
177 174 174 174 172 171 171 170 168 167 168 170 171 172 172 173 175 171 167 172 178 180 179 179 176 171 170 170 167 167 170 170 167 158 148 140 132 126 122 118 113 110 111 112 114 120 136 161 165 150 139 142 140 137 152 179 209 230 237 249 259 259 260 264 270 279 286 289 289 279 273 283 289 283 283 290 294 292 292 295 296 299 301 300 296
169 166 166 167 165 163 163 163 161 158 159 163 167 170 171 174 177 175 170 171 174 173 169 168 165 159 157 158 156 161 169 173 171 165 159 157 154 144 132 122 117 114 110 105 103 104 105 112 119 115 109 109 115 120 132 161 201 237 252 266 275 269 274 281 283 287 289 291 293 280 269 283 294 286 287 296 297 294 297 299 301 306 309 307 303
157 154 154 156 156 154 154 156 154 149 148 153 160 167 172 176 176 172 168 166 165 161 155 152 150 144 142 143 141 142 146 152 155 155 156 161 161 151 134 121 116 114 108 102 103 105 105 108 109 106 105 104 103 106 105 271 275 287 291 291 292 292 297 301 299 299 300 299 301 289 275 283 293 289 292 299 298 296 298 297 298 301 301 299 297
142 141 141 141 143 144 145 147 147 142 140 144 151 160 171 179 178 169 163 160 155 149 143 140 140 137 134 135 136 135 133 135 138 143 149 151 147 137 126 117 113 110 105 100 98 98 97 99 102 101 103 104 103 105 105 97 312 297 290 295 309 311 313 312 302 300 301 299 300 294 281 282 294 297 299 302 299 297 296 294 293 293 292 292 292
125 127 129 127 127 130 132 134 138 139 137 139 146 152 161 173 177 170 162 155 147 141 137 134 134 133 129 128 131 132 131 130 133 138 146 148 141 132 126 123 116 108 104 102 102 103 102 101 101 103 104 102 98 93 83 71 55 29 19 23 14 360 357 352 316 305 310 310 309 301 284 284 300 306 305 303 299 296 294 294 295 294 294 294 292
111 112 116 116 114 113 116 119 126 133 135 137 145 149 151 159 164 164 161 154 143 136 135 133 130 129 127 124 125 126 126 127 132 135 139 146 142 131 129 130 121 109 105 109 114 118 120 117 113 112 107 99 89 80 68 57 45 33 30 28 18 8 8 6 352 337 328 322 326 321 305 301 306 307 308 308 303 299 301 302 303 304 304 300 295
Height
822 823 823 824 825 826 826 827 827 828 829 829 831 832 833 834 835 835 836 837 838 839 840 840 841 842 842 843 844 844 845 846 846 846 846 846 846 847 847 848 849 850 850 850 851 851 851 851 850 850 850 851 851 851 852 852 853 853 853 853 853 854 853 853 853 853 852 852 852 851 851 851 851 850 850 850 849 849 849 848 848 847 847 846 846
822 823 823 824 825 826 827 827 828 828 829 829 831 832 833 834 835 835 836 837 838 839 840 841 841 842 843 843 844 845 846 846 847 847 847 847 847 848 848 849 849 850 851 851 852 852 852 852 852 851 851 851 852 852 852 853 853 853 854 854 854 854 854 854 853 853 853 853 852 852 852 852 852 851 851 851 850 850 850 850 849 849 848 848 847
822 823 823 824 824 825 826 827 828 828 829 830 831 832 833 834 835 835 836 837 838 839 840 841 842 843 843 843 844 845 846 847 848 848 848 848 848 849 849 850 850 851 851 852 853 853 853 853 852 852 852 852 853 853 853 853 853 854 854 854 854 854 854 854 854 854 854 854 854 853 853 853 853 852 852 852 851 851 851 851 850 850 849 849 849
822 823 823 824 824 825 826 827 828 828 829 830 831 832 833 834 835 835 836 837 838 839 840 842 842 843 843 844 844 845 846 847 848 848 849 849 849 850 850 851 851 851 852 853 853 854 854 853 853 853 853 853 854 854 854 854 854 854 855 855 855 855 855 855 855 855 855 855 855 855 854 854 854 854 853 853 852 852 852 852 851 851 851 850 850
822 823 823 824 824 825 826 827 828 829 829 830 831 832 833 833 834 835 836 837 838 839 840 842 842 843 843 844 845 845 846 847 848 849 849 849 849 850 851 851 852 852 853 853 854 854 854 854 854 854 854 854 854 854 854 854 854 855 855 856 856 856 856 856 856 857 857 857 856 856 856 856 855 855 855 854 854 854 853 853 852 852 852 851 851
821 822 823 824 824 825 826 827 828 829 830 830 831 832 833 833 834 835 836 837 838 839 840 841 842 843 843 844 845 846 847 848 849 849 849 850 850 851 851 851 852 852 853 854 854 855 855 855 855 855 855 855 855 855 855 855 856 856 856 857 857 857 858 858 858 858 858 858 858 857 857 857 857 856 856 856 855 855 854 854 854 853 853 853 852
820 821 822 823 824 825 825 827 828 829 830 830 831 832 833 833 834 835 836 837 838 839 840 841 842 843 843 844 845 846 848 849 849 850 850 850 850 851 851 852 852 853 853 854 855 855 855 855 855 855 855 856 856 856 856 857 857 857 857 858 858 858 859 859 859 859 859 859 859 858 858 858 858 858 857 857 857 856 856 855 855 854 854 854 853
819 820 822 823 823 824 825 827 828 829 830 831 831 832 833 833 834 835 836 837 838 839 840 841 842 843 844 845 846 847 848 849 849 850 850 851 851 851 852 852 853 853 854 854 855 856 856 856 856 856 856 856 857 857 858 858 858 858 858 859 859 859 859 860 860 860 860 859 859 859 859 859 859 859 859 858 858 857 857 856 856 856 855 855 855
818 819 821 822 823 824 825 827 828 829 830 830 831 832 833 833 834 835 835 836 838 839 840 842 842 843 844 845 846 847 848 849 849 850 850 851 851 851 852 852 853 854 854 855 855 856 856 856 856 856 857 857 857 858 858 858 858 859 859 859 860 860 860 860 860 860 860 860 860 860 860 860 860 860 860 860 859 859 858 858 857 857 856 856 856
816 818 820 822 823 824 825 826 827 829 829 830 831 832 832 833 834 835 836 836 838 839 840 842 843 843 844 845 846 847 849 849 850 850 850 851 851 851 852 853 854 854 855 855 856 856 857 857 857 857 857 857 858 858 858 859 859 859 859 860 860 860 860 861 861 861 861 861 861 860 860 860 860 861 861 861 860 860 860 859 858 858 857 857 857
815 817 819 821 822 823 824 825 827 828 829 830 830 831 832 833 834 834 835 837 838 839 840 841 843 844 845 845 846 848 849 850 850 850 851 851 851 852 853 853 854 855 855 855 856 856 857 857 857 857 857 857 858 858 858 858 859 859 860 860 861 861 861 861 861 861 861 861 861 861 861 861 861 861 861 862 861 861 861 860 860 859 859 858 858
813 815 817 819 821 822 823 824 826 827 828 829 829 830 831 832 833 834 835 837 838 839 840 841 843 844 846 846 847 849 850 850 851 851 851 851 852 852 852 853 854 855 855 856 856 857 857 857 858 858 857 857 858 858 858 858 859 859 860 860 861 861 861 861 861 861 862 861 861 861 861 861 861 861 862 862 862 862 862 862 861 860 860 860 860
812 814 816 818 819 821 822 823 825 826 827 828 829 829 831 832 833 834 835 836 838 839 840 841 842 845 846 847 848 849 850 851 851 851 851 851 852 852 851 853 854 854 856 856 856 857 857 858 858 858 858 858 858 858 858 858 859 859 860 861 861 861 861 862 862 862 862 862 862 862 862 862 862 862 862 863 863 863 863 863 862 862 862 861 861
812 813 815 816 818 819 820 822 823 824 826 828 829 829 830 831 832 834 835 836 837 838 840 840 842 844 845 847 849 850 851 851 851 851 851 851 851 851 852 853 854 855 856 857 857 857 857 858 858 858 858 858 858 858 858 858 859 860 860 861 861 862 862 863 863 863 863 863 863 863 863 863 862 862 863 863 864 864 864 864 864 863 863 862 862
811 813 814 815 817 818 819 820 821 822 825 826 828 829 830 831 831 832 834 835 837 838 839 839 841 843 846 848 850 851 851 851 851 851 851 851 851 851 852 853 854 855 856 857 857 858 858 858 858 858 859 858 858 858 858 859 859 860 861 862 862 862 863 863 864 864 864 864 864 864 864 863 863 863 863 864 864 865 865 865 864 864 864 863 863
811 811 813 814 816 817 818 819 819 821 823 825 826 827 828 829 831 832 832 834 836 837 838 839 840 842 845 849 851 852 852 851 850 851 851 851 851 851 852 853 854 855 856 857 858 858 858 858 859 859 859 859 859 859 859 859 860 860 861 862 863 863 864 864 864 865 865 865 865 865 865 864 864 864 864 865 865 865 866 865 865 865 865 864 864
809 810 811 813 814 816 817 817 818 820 822 824 825 826 827 828 829 831 831 832 833 835 837 838 839 840 842 846 849 851 852 850 850 851 852 851 852 852 852 853 854 854 855 857 857 858 858 859 859 859 859 859 859 859 860 860 860 861 862 862 863 864 865 865 865 866 866 865 865 865 865 865 865 865 865 866 866 867 867 867 866 866 866 865 865
808 808 809 810 812 814 815 816 818 820 821 823 824 825 826 827 828 829 830 831 831 833 835 837 839 840 840 841 844 845 846 848 850 852 852 852 852 852 852 852 853 854 854 856 857 858 858 859 859 859 859 860 860 860 861 861 861 862 862 863 864 864 865 866 866 866 866 866 866 866 866 867 867 867 867 867 868 868 868 868 868 867 867 866 866
806 807 807 808 810 812 813 815 817 819 821 822 823 824 825 826 828 829 829 830 831 832 833 835 838 839 840 841 841 841 842 844 847 850 851 852 851 852 852 852 853 853 854 855 856 857 858 858 859 859 860 860 861 861 862 862 862 863 863 864 864 865 866 866 867 867 867 867 867 867 867 867 868 868 868 868 868 868 869 869 869 868 868 867 866
804 805 806 807 809 810 812 814 816 818 820 821 822 823 824 825 827 828 828 829 830 831 833 834 836 837 839 840 841 841 841 842 844 846 848 850 851 851 852 852 853 853 854 854 855 856 857 858 858 859 860 860 861 862 862 863 863 864 864 865 865 866 866 866 867 867 868 868 868 868 868 868 868 868 868 868 868 869 869 869 869 869 868 868 867
802 804 805 806 808 810 811 813 815 817 818 820 822 822 823 825 826 827 827 828 829 831 832 833 835 836 838 839 840 841 842 843 844 844 846 848 850 850 851 852 853 853 854 854 855 855 856 857 858 859 860 861 861 862 863 863 864 864 865 865 866 866 866 867 867 868 868 868 869 869 869 869 868 868 868 868 868 868 869 869 870 869 869 868 868
801 803 806 808 809 810 811 812 814 815 817 819 820 821 822 824 825 826 826 827 828 830 832 833 834 835 837 839 840 841 842 843 844 844 845 846 848 849 850 851 852 853 854 854 855 855 856 857 858 859 860 861 862 862 863 864 864 865 865 865 866 866 867 867 868 868 869 869 869 870 870 869 869 869 869 869 868 868 869 869 870 870 870 870 869
798 801 805 808 810 811 810 812 813 814 816 817 819 820 822 823 824 825 826 826 828 830 831 832 833 835 837 838 838 839 840 840 841 842 843 844 846 848 850 851 853 853 854 855 855 856 856 857 858 859 860 861 862 862 863 864 864 864 865 865 866 867 867 868 868 869 869 869 870 870 870 870 870 870 870 870 869 869 869 870 871 871 871 871 870
796 799 802 805 808 810 810 810 811 812 814 815 817 819 821 822 823 824 825 826 828 829 830 831 832 834 835 837 838 838 838 838 839 840 841 842 844 847 849 851 853 854 854 855 856 857 857 857 858 859 860 861 861 862 863 863 864 864 865 865 866 867 868 868 869 869 869 870 870 871 871 871 871 871 871 871 871 870 870 870 871 872 872 872 871
795 797 800 802 804 806 808 808 809 810 812 814 816 817 819 820 821 823 824 825 827 828 829 830 832 833 834 836 837 837 838 838 838 839 840 842 843 846 849 851 852 853 854 855 856 857 857 858 858 859 860 861 861 862 862 863 863 864 864 865 866 867 868 869 869 869 869 870 870 871 872 872 872 872 872 872 872 871 870 870 871 872 872 872 872
793 794 797 800 801 802 805 807 808 809 810 812 814 815 817 818 820 821 823 824 826 827 828 830 831 832 833 835 836 836 837 837 838 838 839 841 842 844 848 851 852 853 854 855 856 856 857 857 858 859 860 861 861 862 862 863 863 864 864 865 866 867 868 868 869 869 870 870 871 871 872 872 872 872 872 872 872 871 871 871 871 872 873 873 873
792 794 796 799 799 801 803 806 807 808 809 811 812 814 815 816 818 820 822 823 825 826 827 829 830 831 832 833 834 835 836 837 837 838 838 839 840 842 844 848 851 853 853 855 856 856 856 857 858 859 860 860 861 862 862 863 863 864 864 865 866 867 868 868 869 869 870 870 871 871 872 872 872 872 872 872 872 872 871 871 871 872 873 873 873
792 794 796 797 799 800 803 805 806 807 808 810 811 812 814 815 817 819 820 822 824 825 826 827 829 830 831 832 833 834 835 836 836 837 838 839 840 841 842 843 847 851 853 854 855 855 856 856 857 858 859 860 861 862 862 863 864 864 865 865 866 867 868 868 869 869 870 870 870 871 872 872 872 872 872 872 872 872 871 871 871 871 872 872 873
792 794 795 796 798 800 802 804 805 806 808 809 810 812 813 815 816 818 819 821 823 824 825 826 827 829 830 831 832 833 834 835 836 837 837 838 839 840 841 841 842 846 850 853 853 853 854 855 856 857 858 859 860 861 862 862 863 864 865 866 866 867 868 868 869 869 869 870 870 871 871 872 872 872 872 872 872 871 871 871 871 871 872 872 872
793 794 795 797 798 800 801 803 804 806 807 808 809 811 812 814 815 817 818 820 822 823 824 826 827 828 829 830 831 833 834 835 835 836 837 837 839 839 840 841 841 842 845 848 851 851 852 853 854 855 856 857 859 860 861 862 863 864 865 865 866 867 868 868 869 869 870 870 870 870 871 871 871 871 871 871 871 871 870 870 870 871 871 872 872
796 796 796 797 798 800 801 802 804 805 806 807 808 810 811 813 814 816 818 819 821 822 824 825 826 827 828 829 831 832 833 834 835 836 836 837 838 839 840 841 842 842 842 845 848 849 850 851 853 854 855 856 858 859 860 861 862 863 864 865 866 866 867 868 869 869 870 870 870 870 871 871 871 871 870 870 870 870 870 870 870 870 871 871 872
797 799 798 797 797 799 800 801 803 804 805 806 807 809 810 812 814 815 816 818 820 821 823 824 825 826 827 828 830 831 832 833 834 835 836 836 837 839 840 841 842 843 843 845 847 848 849 851 852 853 855 856 857 858 859 860 861 862 863 864 865 866 866 867 868 869 869 870 870 870 871 871 870 870 870 870 869 869 869 869 869 870 870 871 871
794 797 799 798 797 798 799 801 802 804 805 806 807 808 810 811 813 814 815 817 819 820 822 823 824 825 826 827 829 830 831 832 834 834 835 836 837 838 839 841 842 842 843 845 846 848 849 850 852 853 854 855 856 857 858 859 860 861 862 863 864 865 866 866 867 868 868 869 870 870 870 870 870 870 869 869 869 868 868 868 869 869 870 870 870
792 794 798 800 798 798 799 800 802 803 804 805 807 808 809 810 812 813 814 816 817 819 820 821 823 824 825 826 827 829 830 832 833 834 834 835 836 837 838 840 841 842 843 844 846 847 848 850 851 852 853 854 855 856 857 858 859 860 861 862 863 863 865 865 866 867 868 868 869 869 870 870 869 869 869 868 868 868 867 868 868 868 868 869 869
791 793 797 801 800 798 799 800 801 803 804 805 806 807 808 809 810 812 813 815 816 817 819 820 821 822 823 825 826 828 829 830 832 833 834 834 835 836 837 839 840 841 842 844 845 846 847 848 850 850 851 853 854 855 857 858 859 860 860 861 862 863 864 864 865 866 867 868 868 868 868 868 868 868 868 867 867 867 866 866 866 866 866 867 867
789 791 795 800 800 797 798 800 801 802 803 804 805 806 807 808 809 810 812 814 815 816 817 818 819 821 822 823 825 826 828 829 830 831 832 833 834 835 836 838 839 841 842 843 844 845 846 847 848 849 850 851 853 855 856 857 858 859 860 861 861 862 863 863 864 865 866 866 867 867 867 867 867 867 867 866 866 866 865 865 865 865 865 865 865
787 788 792 798 799 797 797 799 800 802 803 804 805 806 807 808 809 810 811 813 814 815 816 817 818 820 821 822 824 825 826 827 828 829 831 832 833 834 835 837 838 840 841 842 843 844 844 845 846 847 849 850 852 854 855 856 857 858 859 860 860 861 862 862 863 863 864 864 864 865 865 865 866 865 865 865 864 864 864 864 864 863 863 863 863
785 786 789 797 798 796 797 798 799 801 802 803 804 805 807 808 809 810 811 812 813 814 815 816 818 819 820 822 823 824 825 826 826 828 829 830 832 833 834 835 836 838 839 841 842 843 843 844 845 846 847 848 850 852 853 855 856 857 858 859 859 860 860 860 860 861 862 862 862 862 863 863 864 864 863 863 863 863 863 862 862 862 861 862 862
782 783 787 795 797 795 796 797 798 800 801 802 803 805 806 807 808 809 810 811 812 813 815 816 817 819 820 821 822 823 824 824 825 826 828 829 831 832 833 834 835 836 838 839 840 841 842 843 844 844 845 846 848 850 852 854 855 856 857 858 858 857 858 858 858 859 860 860 860 860 861 861 861 861 861 861 861 860 860 860 859 859 859 859 859
780 781 786 793 795 794 795 796 797 799 800 801 802 803 805 806 807 809 809 810 811 813 814 816 817 819 820 821 821 822 823 823 824 825 826 828 829 831 832 833 834 835 836 838 839 840 841 842 843 843 844 845 847 849 851 853 854 854 854 855 855 854 855 856 856 857 858 858 858 858 858 859 859 858 858 858 857 857 857 857 856 856 856 856 856
779 781 786 792 792 792 794 795 796 798 799 800 801 802 804 805 806 807 808 809 811 812 813 815 817 818 819 820 820 821 822 823 824 825 825 827 828 829 830 831 833 833 834 835 837 838 840 841 842 843 843 844 845 847 849 849 850 850 851 852 853 852 854 855 855 855 856 856 856 856 856 856 856 855 855 855 854 853 854 853 853 852 852 852 852
780 781 785 789 791 792 793 794 795 797 798 800 800 801 802 804 805 806 807 809 810 811 813 814 816 817 818 819 820 820 821 822 823 825 825 826 827 828 829 830 831 832 832 833 835 837 838 839 840 841 842 842 843 844 845 846 847 848 850 851 851 851 853 854 853 852 853 854 854 853 852 853 853 852 852 852 851 850 850 850 849 849 849 849 849
779 780 782 786 788 790 792 793 794 796 797 798 799 800 801 802 804 805 807 808 810 811 813 814 815 816 818 818 819 820 821 822 823 824 825 825 825 826 827 828 829 830 830 831 833 835 836 836 838 839 840 840 841 843 844 845 846 848 849 850 850 851 852 853 851 850 851 852 852 851 850 850 850 849 849 848 848 847 847 846 846 846 846 846 846
777 779 780 783 786 788 789 791 792 794 796 797 798 799 800 801 803 804 806 808 810 811 812 813 815 816 817 818 819 820 822 823 824 824 824 825 825 825 826 827 828 829 830 831 832 833 834 834 836 838 839 840 841 842 844 845 846 847 847 848 849 850 851 851 850 848 848 850 850 849 847 847 847 846 845 845 845 844 844 844 843 843 842 842 842
776 777 778 781 784 786 788 789 790 793 794 796 798 799 800 801 802 804 805 807 809 811 812 813 814 816 817 818 819 820 822 823 824 824 824 825 825 825 826 827 828 828 829 830 831 832 833 834 835 837 838 839 840 841 842 843 844 845 846 846 847 847 848 849 848 847 847 848 848 847 846 845 844 843 842 842 842 842 841 841 840 839 839 838 838
774 774 776 780 783 785 787 787 788 790 793 795 797 798 799 801 802 803 805 807 809 810 812 813 814 816 817 818 819 820 822 823 824 824 825 826 826 826 827 827 828 829 829 831 832 833 833 834 835 837 838 839 840 840 841 842 843 844 844 845 845 846 847 847 846 846 846 846 846 845 843 842 843 841 839 839 839 838 838 838 837 836 835 835 835
772 772 774 779 782 784 786 787 787 789 791 794 796 797 798 800 801 803 804 806 808 810 811 813 814 816 817 818 819 820 822 823 824 825 825 826 826 826 827 827 828 828 829 830 832 833 834 835 836 837 838 839 840 840 840 841 842 843 843 844 844 845 845 845 845 845 845 844 844 843 841 840 841 839 837 837 837 836 836 835 834 834 833 832 832
772 772 774 778 781 783 785 787 787 788 790 793 795 797 798 799 801 802 803 805 807 809 811 813 815 816 818 819 819 820 822 823 824 825 826 826 826 826 826 827 828 828 829 831 833 834 835 836 837 838 839 839 840 840 840 841 841 842 842 843 843 843 843 843 843 843 843 842 842 842 839 838 839 837 835 835 834 833 834 834 833 832 831 830 830
773 772 774 778 781 783 785 787 788 788 790 793 795 797 798 799 800 802 803 805 807 809 811 813 815 817 818 819 820 821 822 823 825 826 827 827 827 827 827 827 828 829 830 832 833 835 836 837 837 838 839 840 840 840 840 840 841 841 841 841 841 841 841 841 841 841 841 841 841 840 838 837 837 836 834 833 832 831 831 831 830 830 829 828 828
776 773 775 778 781 783 785 787 789 789 790 793 795 797 799 800 800 801 803 805 807 809 812 814 816 818 819 820 821 822 823 824 826 827 828 828 828 828 828 829 830 830 832 833 834 835 836 837 837 838 839 840 840 840 840 840 840 840 840 840 840 840 840 841 841 840 840 839 839 838 837 836 835 835 833 831 830 829 829 829 828 828 828 827 826
779 776 777 780 782 785 787 789 790 791 792 794 795 797 799 800 801 802 803 805 807 810 812 814 816 818 820 821 822 823 824 825 826 827 828 828 828 829 829 830 831 832 834 834 835 835 836 837 838 839 839 840 840 839 839 839 839 839 839 839 839 839 839 839 839 839 839 838 838 837 836 835 834 834 833 831 829 827 827 828 827 827 826 825 824